Alexandria, LA

8:21 PM CST on December 17, 2017 (GMT -0600)
Alexandria International

Weather History for KAEX - January, 2011

Change the Weather History Date:

Monday, January 17, 2011

  Actual Average Record
Temperature  
Mean Temperature 54 °F 49 °F  
Max Temperature 60 °F 59 °F 79 °F (1935)
Min Temperature 48 °F 38 °F 14 °F (1982)
Degree Days  
Heating Degree Days 11 16  
Month to date heating degree days 342 272  
Since 1 July heating degree days 1149 1061  
Growing Degree Days 4 (Base 50)    
Moisture  
Dew Point 50 °F    
Average Humidity 86    
Maximum Humidity 100    
Minimum Humidity 72    
Precipitation  
Precipitation 0.09 in 0.17 in 3.10 in (1925)
Month to date precipitation 1.33 2.59  
Year to date precipitation 1.33 2.59  
Snow  
Snow 0.00 in - T in (1948)
Month to date snowfall 0.0  
Since 1 July snowfall 0.0  
Snow Depth 0.00 in    
Sea Level Pressure  
Sea Level Pressure 29.82 in    
Wind  
Wind Speed 7 mph (SSE)    
Max Wind Speed 14 mph    
Max Gust Speed 17 mph    
Visibility 8 miles    
Events Rain    
T = Trace of Precipitation, MM = Missing Value Source: NWS Daily Summary

Daily Weather History Graph

Daily Weather History Graph

Search for Another Location

Airport or City:

Trip Planner

Search our weather history database for the weather conditions in past years. The results will help you decide how hot, cold, wet, or windy it might be!

Date:

Astronomy

Jan. 17, 2011 Rise Set
Actual Time 7:09 AM CST 5:31 PM CST
Civil Twilight 6:43 AM CST 5:57 PM CST
Nautical Twilight 6:13 AM CST 6:27 PM CST
Astronomical Twilight 5:44 AM CST 6:56 PM CST
Moon 3:26 PM CST (1/17) 5:05 AM CST (1/17)
Length of Visible Light 11h 14m
Length of Day
10h 22m
Waxing Gibbous, 94% of the Moon is Illuminated
Jan 17
Waxing Gibbous
Jan 19
Full
Jan 26
Last Quarter
Feb 2
New
Feb 11
First Quarter

Hourly Weather History & Observations

Time (CST) Temp. Dew Point Humidity Pressure Visibility Wind Dir Wind Speed Gust Speed Precip Events Conditions
12:53 AM 48.0 °F 46.0 °F 93% 29.98 in 9.0 mi SE 10.4 mph - 0.03 in Rain Light Rain
1:53 AM 48.0 °F 46.0 °F 93% 29.97 in 6.0 mi SE 8.1 mph - 0.02 in Rain Light Rain
2:53 AM 48.0 °F 46.0 °F 93% 29.96 in 7.0 mi SE 8.1 mph - 0.03 in Rain Light Rain
3:53 AM 48.0 °F 46.0 °F 93% 29.94 in 7.0 mi ESE 4.6 mph - 0.00 in   Overcast
4:53 AM 48.0 °F 46.0 °F 93% 29.92 in 7.0 mi ESE 6.9 mph - 0.00 in Rain Light Rain
5:53 AM 48.0 °F 46.0 °F 93% 29.91 in 6.0 mi SE 4.6 mph - 0.00 in   Overcast
6:53 AM 48.0 °F 46.0 °F 93% 29.91 in 7.0 mi ESE 3.5 mph - N/A   Overcast
7:53 AM 48.0 °F 46.0 °F 93% 29.91 in 5.0 mi ESE 5.8 mph - N/A   Overcast
8:53 AM 48.9 °F 46.0 °F 90% 29.91 in 6.0 mi ESE 5.8 mph - N/A   Overcast
9:53 AM 50.0 °F 46.9 °F 89% 29.90 in 7.0 mi SE 10.4 mph - N/A   Overcast
10:45 AM 53.6 °F 46.4 °F 77% 29.87 in 10.0 mi SE 10.4 mph - N/A   Overcast
10:53 AM 54.0 °F 48.0 °F 80% 29.88 in 10.0 mi SE 9.2 mph - N/A   Overcast
11:53 AM 55.9 °F 48.9 °F 77% 29.84 in 10.0 mi SE 9.2 mph - N/A   Overcast
12:32 PM 57.2 °F 48.2 °F 72% 29.80 in 10.0 mi SE 10.4 mph - N/A   Overcast
12:49 PM 59.0 °F 50.0 °F 72% 29.78 in 10.0 mi SE 10.4 mph - N/A   Overcast
12:53 PM 59.0 °F 50.0 °F 72% 29.79 in 10.0 mi SE 9.2 mph - N/A   Overcast
1:53 PM 60.1 °F 51.1 °F 72% 29.76 in 10.0 mi SSE 9.2 mph - N/A   Overcast
2:53 PM 59.0 °F 52.0 °F 78% 29.75 in 10.0 mi South 9.2 mph - N/A   Overcast
3:53 PM 57.9 °F 52.0 °F 81% 29.76 in 10.0 mi SSW 5.8 mph - N/A   Overcast
4:53 PM 57.0 °F 53.1 °F 87% 29.76 in 10.0 mi SW 3.5 mph - N/A   Overcast
5:53 PM 55.9 °F 54.0 °F 93% 29.75 in 9.0 mi South 6.9 mph - 0.01 in Rain Light Rain
6:53 PM 55.0 °F 54.0 °F 96% 29.75 in 10.0 mi South 3.5 mph - 0.00 in   Overcast
7:53 PM 55.0 °F 54.0 °F 96% 29.75 in 9.0 mi SSE 4.6 mph - N/A   Overcast
8:53 PM 54.0 °F 53.1 °F 97% 29.75 in 8.0 mi SSE 4.6 mph - N/A   Mostly Cloudy
9:02 PM 53.6 °F 53.6 °F 100% 29.74 in 8.0 mi SSE 4.6 mph - N/A   Scattered Clouds
9:21 PM 55.4 °F 53.6 °F 94% 29.75 in 10.0 mi SSW 3.5 mph - N/A   Mostly Cloudy
9:41 PM 53.6 °F 51.8 °F 94% 29.75 in 5.0 mi Calm Calm - N/A   Scattered Clouds
9:53 PM 54.0 °F 52.0 °F 93% 29.76 in 6.0 mi Calm Calm - N/A   Clear
10:25 PM 53.6 °F 51.8 °F 94% 29.74 in 8.0 mi South 4.6 mph - N/A   Mostly Cloudy
10:53 PM 54.0 °F 53.1 °F 97% 29.76 in 10.0 mi South 6.9 mph - N/A   Overcast
11:08 PM 53.6 °F 53.6 °F 100% 29.74 in 10.0 mi SSW 8.1 mph - N/A   Overcast
11:53 PM 54.0 °F 52.0 °F 93% 29.76 in 10.0 mi South 6.9 mph - N/A   Overcast